Location: Berg
(48.4333°N, 13.9167°E)
Time: 03:38:13
(UTC+00:00)

ATLAS CENTAUR R/B - Pass Details

Date: 22 January 2021
Orbit: 475 x 670 km, 64.7° (Epoch: 06 March)

Event Time Altitude Azimuth Distance (km) Brightness Sun altitude
Rises 04:14:57 0° 166° (SSE) 2,546 4.9 -24.6°
Reaches altitude 10° 04:18:18 10° 134° (SE) 1,651 4.4 -24.0°
Maximum altitude 04:19:39 12° 112° (ESE) 1,541 4.5 -23.8°
Drops below altitude 10° 04:21:01 10° 90° (E) 1,648 4.8 -23.6°
Sets 04:24:20 0° 57° (ENE) 2,533 5.5 -23.0°
